Regional Weather Roundup
Issued by NWS

Home | Current Version | Previous Version | Graphics & Text | Print | Product List | Glossary On
Versions: 1 2 3 4 5 6 7 8 9 10 11 12 13 14 15 16 17 18 19 20 21 22 23 24 25 26 27
000
ASUS45 KBOU 270207
RWRCO

WEATHER ROUNDUP FOR COLORADO
NATIONAL WEATHER SERVICE DENVER/BOULDER CO
800 PM MDT MON JUN 26 2017

NOTE: "FAIR" INDICATES FEW OR NO CLOUDS BELOW 12000 FEET WITH NO
SIGNIFICANT WEATHER AND/OR OBSTRUCTIONS TO VISIBILITY.

COZ001>005-013-030-031-270300-
...NORTHWEST COLORADO...

CITY           SKY/WX    TMP DP  RH WIND       PRES   REMARKS
CRAIG          FAIR      73  37  27 SE7       30.09F
HAYDEN         FAIR      79  32  18 NE3       30.13F
MEEKER         FAIR      76  36  23 NE7       30.12S
RABBIT EARS PA FAIR      59  27  29 NW3       30.48F
STEAMBOAT SPGS FAIR      76  37  24 CALM      30.17F
WALDEN         FAIR      75  28  17 N3        30.28S
$$

COZ006>008-011-270300-
...WEST CENTRAL VALLEYS...

CITY           SKY/WX    TMP DP  RH WIND       PRES   REMARKS
GRAND JUNCTION FAIR      93  14   5 NW13      29.95F
MONTROSE       FAIR      87  31  13 SW5       30.06F
EAGLE          FAIR      81  27  14 N5        30.15F
RIFLE          FAIR      87  26  11 CALM      30.04F
DELTA          FAIR      95  23   7 S5        30.00S
NUCLA          FAIR      86  25  10 NE5       30.11F
$$

COZ017>023-064>068-270300-
...SOUTHWEST COLORADO...

CITY           SKY/WX    TMP DP  RH WIND       PRES   REMARKS
DURANGO        FAIR      78  28  16 CALM      30.18F
CORTEZ         FAIR      86  29  12 W3        30.10S
PAGOSA SPRINGS FAIR      75  25  15 CALM      30.29F
TELLURIDE      FAIR      68  33  26 CALM      30.40F
WOLF CREEK PAS DRIZZLE   46  32  57 W12G35    30.67R
$$

COZ009-010-012-014-032>034-037-058>063-270300-
...CENTRAL COLORADO...

CITY           SKY/WX    TMP DP  RH WIND       PRES   REMARKS
ASPEN          FAIR      73  31  21 SE12      30.25S
BUENA VISTA    FAIR      71  38  30 E9        30.31R
COPPER MTN     NOT AVBL
BERTHOUD PASS  FAIR      45  32  61 SE18G26   30.66S
COTTONWOOD PAS FAIR      66  32  28 SE15G23   30.44R
GUNNISON       FAIR      73  35  25 N7        30.24R
KREMMLING      NOT AVBL
LEADVILLE      FAIR      67  17  14 NW14G21   30.42R
SALIDA         FAIR      73  38  27 SE17G29   30.33R
SUNLIGHT       FAIR      59  19  21 NW3       30.53F
WILKERSON PASS FAIR      52  32  46 E8        30.58F
$$

COZ069>075-270300-
...SAN LUIS VALLEY/SANGRE DE CRISTO MOUNTAINS...

CITY           SKY/WX    TMP DP  RH WIND       PRES   REMARKS
ALAMOSA        FAIR      66  42  41 E14       30.26F
DEL NORTE      FAIR      65  41  40 SW3       30.30F
LA VETA PASS   FAIR      54  32  43 W6        30.61R
SAGUACHE       FAIR      70  41  35 E13       30.31R
$$

COZ035-036-038>040-270300-
...NORTHERN COLORADO FRONT RANGE...

CITY           SKY/WX    TMP DP  RH WIND       PRES   REMARKS
DENVER INTL AP FAIR      79  46  31 E17       30.10F
DMNS CITY PARK   N/A     80  38  22 E6G17     30.10S
AURORA         PTCLDY    79  44  29 E10       30.13F
FRONT RANGE AP FAIR      79  45  29 E16G28    30.12F
ERIE MUNI ARPT FAIR      82  38  21 E8        30.09S
BOULDER MUN AP FAIR      81  45  28 NE3       30.10F
CENTENNIAL     FAIR      80  37  21 E10       30.13F
BROOMFIELD     FAIR      81  37  21 E8        30.14S
FORT COLLINS   FAIR      81  47  30 SE10      30.08F
LONGMONT       FAIR      83  44  24 E5        30.11S
$$

COZ041-046-047-076>085-087-088-270300-
...PIKES PEAK/PALMER DIVIDE AND SOUTHERN FOOTHILLS...

CITY           SKY/WX    TMP DP  RH WIND       PRES   REMARKS
COLO. SPRINGS  MOCLDY    75  44  33 SW9       30.16F
A. F. ACADEMY  FAIR      73  44  35 SW7       30.19S
SCHRIEVER AFB  MOCLDY    70  43  37 E7G18     30.14F
CHEYENNE MTN   MOCLDY    66  48  52 W7        30.17S
ELLICOTT       MOCLDY   N/A N/A N/A E14       30.18R THUNDER
FALCON           N/A     73  42  32 S10       30.22F
FORT CARSON    FAIR      80  33  18 N8G18     30.11F
LIMON          FAIR      76  47  35 SE15      30.15R
MONUMENT HILL  FAIR      68  43  40 S7        30.25S
CANON CITY     CLEAR     75  46  35 SW7       30.13F
WALSENBURG     FAIR      72  43  35 NE14G21   30.22S
TRINIDAD       FAIR      75  39  27 NW8G20    30.16S
$$

COZ042>045-048>051-090-091-270300-
...NORTHEAST COLORADO...

CITY           SKY/WX    TMP DP  RH WIND       PRES   REMARKS
GREELEY ARPT   FAIR      78  47  33 E10       30.08S
AKRON          FAIR      73  55  53 SE21G28   30.12R
BURLINGTON     FAIR      71  59  65 E13       30.11R
WRAY           FAIR      73  55  53 E13G20    30.10S
YUMA           FAIR      70  57  64 E17G23    30.11S
STERLING       FAIR      77  55  47 SE12G18   30.07R
HOLYOKE        NOT AVBL
FORT MORGAN    FAIR      76  53  45 E14G20    30.10S
$$

COZ086-089-092>099-270300-
...SOUTHEAST COLORADO...

CITY           SKY/WX    TMP DP  RH WIND       PRES   REMARKS
PUEBLO         FAIR      77  44  30 SW9       30.04S
LA JUNTA       FAIR      83  56  39 E10       30.04F
LAMAR          FAIR      80  58  46 E10       30.03R
SPRINGFIELD      N/A     69  55  60 SW14G22   30.10R
$$




USA.gov is the U.S. government's official web portal to all federal, state and local government web resources and services.